KSLV-II R/B

Satellite information

Favourite Embed

Satellite Type and Status

ROCKET BODYIN ORBIT

Key statistics

Satellite KSLV-II R/B at a glance.

Uptime

772

Days in orbit

Revolutions

≈ 15.3

Per day

Orbit

SSO

Sun Synchronous Orbit

Inclination

97.5

Latest

Satellite identification and parameters

Extended collection of information and parameters for KSLV-II R/B.

Object identification

Identified? True

Debris? False

Object name: KSLV-II R/B

International designator: 2023-072H

Object number (NORAD): 56750

Object ID (CCSDS): 56750

Country: SOUTH KOREA (SKOR)

Current information (Y/N): Y

RCS size: LARGE

Orbital parameters

Period: 94.205 minutes

Inclination: 97.5169 deg

SMA: 6858.191 km

Apoapsis: 500.248 km

Periapsis: 459.863 km

RAAN: 22.9642 deg

Eccentricy: 0.0029443

Argument of periapsis: 115.2177 deg

Mean anomaly: 245.212 deg

Mean motion: 15.28580905 rev/day

Mean motion (dot): 0.00005701 rev/day2

B* drag term: 0.00020525 1/REarth

Two-line elements (TLE)

Creation date: July 4, 2025, 6:39 p.m.

Reference frame: TEME

Reference center: EARTH

Epoch: July 4, 2025, 11:56 a.m. UTC

TLE line 0: 0 KSLV-II R/B

TLE line 1: 1 56750U 23072H 25185.49764260 .00005701 00000-0 20525-3 0 9996

TLE line 2: 2 56750 97.5169 22.9642 0029443 115.2177 245.2120 15.28580905117179

Live tracking on map

Real-time ground track for satellite KSLV-II R/B.

In-orbit conjunctions

A list of the most updated potential collisions computed for object KSLV-II R/B.

Target Orbit TCA Probability of collision Miss distance Type
CZ-6A R/B SSO 2025-06-01 00:53:57 0.0001205068 220.0 (m) ROCKET BODY

Associated space launch

Third flight of the KSLV-II "Nuri" launch vehicle, carrying NEXTSat-2 as well as SNIPE A through D.

KSLV-II R/B was lifted into orbit during the mission ‘Nuri | NEXTSat-2 & SNIPE’, on board a Nuri space rocket.

The launch took place on May 25, 2023, 9:24 a.m. from LC-2.

For more information about the launch, click the button.

Launch to space Nuri | NEXTSat-2 & SNIPE
Nuri | NEXTSat-2 & SNIPE

Agency: N/A

Status: Launch Successful

Launch date: May 25, 2023, 9:24 a.m. UTC

Rocket: Nuri

Launch pad: LC-2

Location: Naro Space Center, South Korea

...

Latest news about this satellite

News about space launch
South Korea’s KSLV-2 rocket launches seven satellites, one unaccounted for

South Korea’s KSLV-2 rocket put seven satellites, including one equipped with synthetic aperture radar, into sun-synchronous orbit May 25, although an eighth cubesat is believed to have not deployed properly.

News about space launch
South Korea’s KSLV-2 rocket set to launch May 24

South Korea’s homegrown KSLV-2 rocket is slated to launch May 24, carrying a 180-kilogram technology demonstration satellite and seven cubesats.


Newsletter sign-up

Weekly statistics, charts and insights to help you stay on top of the space industry.